Location: Althorst
(53.6379°N, 10.7715°E)
Time: 00:56:57
(UTC+00:00)

Cosmos 1812 - Pass Details

Date: 10 December 2019
Orbit: 516 x 523 km, 82.5° (Epoch: 19 January)

Event Time Altitude Azimuth Distance (km) Brightness Sun altitude
Rises 16:00:39 0° 164° (SSE) 2,645 6.5 -8.7°
Reaches altitude 10° 16:02:55 10° 154° (SSE) 1,762 5.4 -9.0°
Maximum altitude 16:06:22 31° 91° (E) 934 3.5 -9.5°
Drops below altitude 10° 16:09:50 10° 28° (NNE) 1,776 4.9 -9.9°
Enters shadow 16:10:16 - 26° (NNE) 1,943 5.2 -10.0°
